Location: Chervonnoye
(48.6000°N, 34.4000°E)
Time: 11:43:40
(UTC+00:00)

KAITUO 1B - Pass Details

Date: 02 December 2021
Orbit: 486 x 507 km, 97.4° (Epoch: 28 January)

Event Time Altitude Azimuth Distance (km) Brightness Sun altitude
Rises 03:54:43 0° 18° (NNE) 2,635 ? -12.7°
Reaches altitude 10° 03:56:54 10° 26° (NNE) 1,742 ? -12.3°
Maximum altitude 04:00:30 43° 99° (E) 729 ? -11.8°
Drops below altitude 10° 04:04:02 10° 171° (S) 1,718 ? -11.2°
Sets 04:06:11 0° 179° (S) 2,594 ? -10.9°
